User: anonymous   Login
Location: Ceske Budejovice
(48.9830°N, 14.4670°E)
Time: 00:34:59
(UTC+02:00)
Language:

Oscar 19 - Orbit

View from above orbital plane
View from above orbital plane
View from above satellite
View from above satellite

Ground track
Ground track

The orbit data is extracted from the following two-line orbital elements,

1 20442U 90005G   19196.41292395 -.00000012  00000-0  11789-4 0  9991
2 20442  98.6495 138.3698 0012931  72.3235 287.9359 14.32928786540205
Epoch (UTC): 15 July 2019 09:54:36
Eccentricity: 0.0012931
inclination: 98.6495°
perigee height: 773 km
apogee height: 791 km
right ascension of ascending node: 138.3698°
argument of perigee: 72.3235°
revolutions per day: 14.32928786
mean anomaly at epoch: 287.9359°
orbit number at epoch: 54020

The dashed part of the orbit path shows where the satellite is in the earth's shadow,  

DLR